Salinas, CA

3:33 AM PDT on June 29, 2017 (GMT -0700)
Salinas Municipal

Weather History for KSNS - May, 2013

Change the Weather History Date:

Thursday, May 30, 2013

  Actual Average Record
Temperature  
Mean Temperature 59 °F 60 °F  
Max Temperature 66 °F 69 °F 95 °F (2001)
Min Temperature 51 °F 52 °F 41 °F (1937)
Degree Days  
Heating Degree Days 6 5  
Month to date heating degree days 136 178  
Since 1 July heating degree days 2384 2567  
Cooling Degree Days 0 0  
Month to date cooling degree days 9 0  
Year to date cooling degree days 10 7  
Growing Degree Days 8 (Base 50)    
Moisture  
Dew Point 46 °F    
Average Humidity 68    
Maximum Humidity 83    
Minimum Humidity 52    
Precipitation  
Precipitation 0.00 in 0.00 in 0.13 in (1990)
Month to date precipitation 0.01 0.34  
Year to date precipitation 2.29 8.62  
Since 1 July precipitation 8.93  
Sea Level Pressure  
Sea Level Pressure 30.02 in    
Wind  
Wind Speed 11 mph (West)    
Max Wind Speed 20 mph    
Max Gust Speed 24 mph    
Visibility 10 miles    
Events      
T = Trace of Precipitation, MM = Missing Value Source: NWS Daily Summary

Daily Weather History Graph

Daily Weather History Graph

Search for Another Location

Airport or City:

Trip Planner

Search our weather history database for the weather conditions in past years. The results will help you decide how hot, cold, wet, or windy it might be!

Date:

Astronomy

May. 30, 2013 Rise Set
Actual Time 5:49 AM PDT 8:18 PM PDT
Civil Twilight 5:19 AM PDT 8:48 PM PDT
Nautical Twilight 4:42 AM PDT 9:25 PM PDT
Astronomical Twilight 4:02 AM PDT 10:06 PM PDT
Moon 12:28 AM PDT (5/30) 11:57 AM PDT (5/30)
Length of Visible Light 15h 28m
Length of Day
14h 28m
Waning Gibbous, 61% of the Moon is Illuminated
May 30
Waning Gibbous
May 31
Last Quarter
Jun 8
New
Jun 16
First Quarter
Jun 23
Full

Hourly Weather History & Observations

Time (PDT) Temp. Dew Point Humidity Pressure Visibility Wind Dir Wind Speed Gust Speed Precip Events Conditions
12:53 AM 54.0 °F 46.0 °F 75% 30.00 in 10.0 mi NNW 8.1 mph - N/A   Clear
1:53 AM 53.1 °F 46.0 °F 77% 29.99 in 10.0 mi NW 6.9 mph - N/A   Clear
2:53 AM 52.0 °F 46.0 °F 80% 29.99 in 10.0 mi WNW 5.8 mph - N/A   Clear
3:53 AM 51.1 °F 46.9 °F 86% 30.00 in 9.0 mi WSW 11.5 mph - N/A   Partly Cloudy
4:08 AM 51.8 °F 46.4 °F 82% 29.97 in 9.0 mi WSW 10.4 mph - N/A   Mostly Cloudy
4:53 AM 52.0 °F 46.9 °F 83% 30.01 in 9.0 mi West 10.4 mph - N/A   Overcast
5:53 AM 52.0 °F 46.9 °F 83% 30.02 in 9.0 mi WSW 10.4 mph - N/A   Overcast
6:53 AM 52.0 °F 46.9 °F 83% 30.02 in 9.0 mi WSW 10.4 mph - N/A   Overcast
7:15 AM 51.8 °F 46.4 °F 82% 30.00 in 9.0 mi West 9.2 mph - N/A   Overcast
7:53 AM 53.1 °F 46.9 °F 80% 30.03 in 9.0 mi West 8.1 mph - N/A   Mostly Cloudy
8:31 AM 55.4 °F 48.2 °F 77% 30.00 in 9.0 mi WNW 6.9 mph - N/A   Scattered Clouds
8:53 AM 55.9 °F 48.0 °F 75% 30.03 in 9.0 mi WNW 6.9 mph - N/A   Clear
9:53 AM 60.1 °F 46.9 °F 62% 30.03 in 10.0 mi West 11.5 mph - N/A   Clear
10:53 AM 62.1 °F 46.0 °F 56% 30.03 in 10.0 mi West 10.4 mph - N/A   Clear
11:53 AM 63.0 °F 46.0 °F 54% 30.04 in 10.0 mi West 13.8 mph - N/A   Clear
12:53 PM 64.9 °F 46.9 °F 52% 30.04 in 10.0 mi WNW 13.8 mph - N/A   Clear
1:53 PM 64.9 °F 46.9 °F 52% 30.03 in 10.0 mi West 16.1 mph 20.7 mph N/A   Clear
2:53 PM 64.9 °F 46.0 °F 50% 30.03 in 10.0 mi West 13.8 mph 20.7 mph N/A   Clear
3:53 PM 63.0 °F 46.9 °F 56% 30.03 in 10.0 mi West 18.4 mph 24.2 mph N/A   Clear
4:53 PM 63.0 °F 45.0 °F 52% 30.02 in 10.0 mi West 16.1 mph 20.7 mph N/A   Clear
5:53 PM 62.1 °F 45.0 °F 53% 30.02 in 10.0 mi West 15.0 mph 20.7 mph N/A   Clear
6:53 PM 61.0 °F 45.0 °F 56% 30.01 in 10.0 mi West 12.7 mph - N/A   Clear
7:53 PM 59.0 °F 45.0 °F 60% 30.02 in 9.0 mi West 12.7 mph 19.6 mph N/A   Clear
8:53 PM 57.9 °F 44.1 °F 60% 30.02 in 10.0 mi West 10.4 mph - N/A   Clear
9:53 PM 55.0 °F 45.0 °F 69% 30.04 in 10.0 mi West 15.0 mph - N/A   Clear
10:53 PM 54.0 °F 45.0 °F 72% 30.05 in 9.0 mi WNW 8.1 mph - N/A   Clear
11:53 PM 53.1 °F 45.0 °F 74% 30.04 in 9.0 mi WNW 6.9 mph - N/A   Clear